Home   Weather   Alexandroupoli   Past weeks

Flag for Greece Past Weather in Alexandroupoli, Greece — Yesterday and Last 2 Weeks

Now
36 °F

Passing clouds.


Feels Like: 29 °F
Forecast: 34 / 42 °F
Wind: 9 mph from North

Location: Alexandroupoli Airport

Current Time: Jan 23, 2017 at 9:23:31 pm

Latest Report: Jan 23, 2017 at 8:50 pm


Visibility: N/A

Pressure: 30.27 "Hg

Humidity: 81%

Dew Point: 30 °F

Location of AlexandroupoliLocation

Past Weather in Alexandroupoli — Graph

°F

Alexandroupoli Temperature Yesterday

Maximum temperature yesterday: 45 °F (at 1:50 pm)
Minimum temperature yesterday: 23 °F (at 7:50 am)
Average temperature yesterday: 38 °F

High & Low Weather Summary for the Past Weeks

 TemperatureHumidityPressure
High55 °F (Jan 14, 1:20 pm)100% (Jan 16, 8:50 am)30.51 "Hg (Jan 16, 8:50 am)
Low18 °F (Jan 8, 8:50 pm)42% (Jan 22, 1:50 pm)29.65 "Hg (Jan 14, 12:50 pm)
Average36 °F77%30.12 "Hg
* Reported Jan 8 7:20 pm — Jan 23 7:50 pm, Alexandroupoli, Weather by CustomWeather, © 2017

Note: Actual official high and low records may vary slightly from our data, if they occured in-between our weather recording intervals... More about our weather records

Advertising

Alexandroupoli Weather History for the Previous 24 Hours

Scroll right to see more
 ConditionsComfort  
Time TempWeatherWind HumidityBarometerVisibility
7:50 pm
Mon, Jan 23
37 °FPassing clouds.9 mph75%30.27 "HgN/A
7:20 pm39 °FPassing clouds.9 mph75%30.27 "HgN/A
6:50 pm39 °FPassing clouds.12 mph75%30.27 "HgN/A
6:20 pm39 °FPassing clouds.8 mph75%30.30 "HgN/A
5:50 pm39 °FPassing clouds.8 mph75%30.30 "HgN/A
5:20 pm41 °FBroken clouds.9 mph70%30.30 "HgN/A
4:50 pm41 °FBroken clouds.9 mph70%30.30 "HgN/A
4:20 pm41 °FPartly sunny.9 mph70%30.33 "HgN/A
3:50 pm41 °FMostly cloudy.9 mph70%30.33 "HgN/A
3:20 pm43 °FBroken clouds.12 mph66%30.33 "HgN/A
2:50 pm43 °FBroken clouds.12 mph66%30.33 "HgN/A
2:20 pm43 °FBroken clouds.12 mph66%30.36 "HgN/A
1:50 pm43 °FBroken clouds.14 mph66%30.30 "HgN/A
1:20 pm43 °FMore clouds than sun.16 mph66%30.36 "HgN/A
12:50 pm41 °FMore clouds than sun.16 mph70%30.36 "HgN/A
12:20 pm41 °FMore clouds than sun.14 mph70%30.39 "HgN/A
11:50 am41 °FMore clouds than sun.14 mph70%30.39 "HgN/A
11:20 am39 °FMore clouds than sun.13 mph70%30.42 "HgN/A
10:50 am39 °FMore clouds than sun.14 mph70%30.42 "HgN/A
10:20 am39 °FBroken clouds.13 mph61%30.42 "HgN/A
9:50 am39 °FBroken clouds.13 mph61%30.42 "HgN/A
9:20 am39 °FBroken clouds.10 mph61%30.42 "HgN/A
8:50 am39 °FBroken clouds.12 mph61%30.42 "HgN/A
8:20 am39 °FBroken clouds.9 mph65%30.42 "HgN/A
7:50 am37 °FPartly sunny.9 mph70%30.42 "HgN/A
7:20 am37 °FPassing clouds.8 mph70%30.42 "HgN/A
6:50 am37 °FPassing clouds.7 mph70%30.42 "HgN/A
6:20 am39 °FPassing clouds.7 mph65%30.42 "HgN/A
5:50 am39 °FPassing clouds.9 mph65%30.42 "HgN/A
10:50 pm
Sun, Jan 22
37 °FPassing clouds.7 mph70%30.48 "HgN/A
10:20 pm37 °FPassing clouds.9 mph70%30.48 "HgN/A
9:50 pm37 °FPassing clouds.9 mph70%30.48 "HgN/A
9:20 pm36 °FPassing clouds.8 mph70%30.48 "HgN/A
Weather by CustomWeather, © 2017

See weather overviewHow to use our weather pages